Weather History for Molokai, HI

Change the Weather History Date:

Thursday, September 26, 2013

  Actual Average Record
Temperature  
Mean Temperature 80 °F -  
Max Temperature 87 °F 86 °F 92 °F (1973)
Min Temperature 72 °F 70 °F 61 °F (1982)
Cooling Degree Days 14    
Growing Degree Days 30 (Base 50)    
Moisture  
Dew Point 67 °F    
Average Humidity 71    
Maximum Humidity 90    
Minimum Humidity 44    
Precipitation  
Precipitation 0.00 in - - ()
Sea Level Pressure  
Sea Level Pressure 29.99 in    
Wind  
Wind Speed 7 mph (NE)    
Max Wind Speed 15 mph    
Max Gust Speed 25 mph    
Visibility 10 miles    
Events      
Averages and records for this station are not official NWS values.
T = Trace of Precipitation, MM = Missing Value Source: NWS Daily Summary

Daily Weather History Graph

Daily Weather History Graph

Search for Another Location

Airport:

Trip Planner

Search our weather history database for the weather conditions in past years. The results will help you decide how hot, cold, wet, or windy it might be!

Date:

Astronomy

Sep. 26, 2013 Rise Set
Actual Time 6:18 AM HST 6:20 PM HST
Civil Twilight 5:56 AM HST 6:42 PM HST
Nautical Twilight 5:30 AM HST 7:08 PM HST
Astronomical Twilight 5:04 AM HST 7:34 PM HST
Moon No Moon Rise 12:42 PM HST
Length of Visible Light 12h 46m
Length of Day
12h 02m
Waning Gibbous, 52% of the Moon is Illuminated
Sep 26
Waning Gibbous
Sep 26
Last Quarter
Oct 4
New
Oct 11
First Quarter
Oct 18
Full

Hourly Weather History & Observations

Time (HST) Temp. Heat Index Dew Point Humidity Pressure Visibility Wind Dir Wind Speed Gust Speed Precip Events Conditions
12:54 AM 73.0 °F - 70.0 °F 90% 30.01 in 9.0 mi NE 4.6 mph - N/A   Overcast
1:54 AM 73.0 °F - 69.1 °F 87% 29.99 in 10.0 mi NNE 4.6 mph - N/A   Overcast
2:54 AM 73.9 °F - 69.1 °F 85% 29.98 in 10.0 mi NE 3.5 mph - N/A   Mostly Cloudy
3:54 AM 72.0 °F - 66.9 °F 84% 29.97 in 8.0 mi Calm Calm - N/A   Mostly Cloudy
4:54 AM 75.0 °F - 66.9 °F 76% 29.98 in 10.0 mi NNE 10.4 mph - N/A   Overcast
5:54 AM 75.0 °F - 68.0 °F 79% 29.99 in 10.0 mi NE 8.1 mph - N/A   Overcast
6:54 AM 75.0 °F - 66.9 °F 76% 30.01 in 10.0 mi East 3.5 mph - N/A   Mostly Cloudy
7:54 AM 79.0 °F - 66.9 °F 66% 30.02 in 10.0 mi NE 10.4 mph - N/A   Mostly Cloudy
8:54 AM 80.1 °F 82.1 °F 66.0 °F 62% 30.03 in 10.0 mi Calm Calm - N/A   Partly Cloudy
9:54 AM 82.9 °F 85.4 °F 66.9 °F 58% 30.03 in 10.0 mi NE 8.1 mph - N/A   Clear
10:54 AM 82.9 °F 85.4 °F 66.9 °F 58% 30.02 in 10.0 mi NE 12.7 mph 20.7 mph N/A   Partly Cloudy
11:54 AM 87.1 °F 87.8 °F 63.0 °F 44% 30.01 in 10.0 mi NE 10.4 mph 21.9 mph N/A   Scattered Clouds
12:54 PM 84.0 °F 87.8 °F 69.1 °F 61% 29.98 in 10.0 mi NNE 15.0 mph 20.7 mph N/A   Scattered Clouds
1:54 PM 84.9 °F 88.2 °F 68.0 °F 57% 29.96 in 10.0 mi NE 11.5 mph 23.0 mph N/A   Mostly Cloudy
2:54 PM 82.9 °F 85.4 °F 66.9 °F 58% 29.95 in 10.0 mi ENE 15.0 mph 18.4 mph N/A   Mostly Cloudy
3:54 PM 82.0 °F 85.9 °F 70.0 °F 67% 29.96 in 10.0 mi NE 13.8 mph 25.3 mph N/A   Clear
4:54 PM 80.1 °F 82.9 °F 69.1 °F 69% 29.96 in 10.0 mi NE 12.7 mph 23.0 mph N/A   Partly Cloudy
5:54 PM 77.0 °F - 68.0 °F 74% 29.98 in 10.0 mi NE 11.5 mph - N/A   Partly Cloudy
6:54 PM 75.9 °F - 68.0 °F 76% 29.99 in 10.0 mi NE 9.2 mph 17.3 mph N/A   Clear
7:54 PM 75.0 °F - 66.0 °F 73% 30.00 in 10.0 mi NE 10.4 mph 17.3 mph N/A   Clear
8:54 PM 75.0 °F - 66.0 °F 73% 30.01 in 9.0 mi NNE 6.9 mph - N/A   Partly Cloudy
9:54 PM 75.0 °F - 68.0 °F 79% 30.01 in 10.0 mi NNE 9.2 mph - N/A   Clear
10:54 PM 73.0 °F - 64.9 °F 76% 30.02 in 10.0 mi North 3.5 mph - N/A   Partly Cloudy
11:54 PM 73.9 °F - 66.9 °F 79% 30.01 in 10.0 mi NE 5.8 mph - N/A   Clear